Simultaneous Nadir Overpasses (SNOs) Predictions

Prediction of SNOs between METOP-B and NOAA-19 Satellite Orbit:

Table of predicted SNOs for the next 14.0 days since TLE Epoch: 12/28/2019
Index Date (METOP-B) Time (METOP-B) Lat,Lon (METOP-B) SZA (METOP-B ) Date (NOAA-19) Time (NOAA-19) Lat,Lon (NOAA-19) SZA (NOAA-19 ) Distance(km) Time Diff (sec)
1 12/28/2019 06:06:42 79.75, 108.34 103.55 12/28/2019 06:05:30 79.79, 107.00 103.50 26.91 72
2 12/28/2019 06:57:24 -79.71, -84.65 76.51 12/28/2019 06:56:22 -79.71, -84.83 76.54 3.57 62
3 12/28/2019 07:48:05 79.70, 82.61 103.48 12/28/2019 07:47:27 79.69, 82.60 103.46 1.13 38
4 12/28/2019 08:38:46 -79.70,-110.09 76.53 12/28/2019 08:38:22 -79.69,-110.12 76.55 0.93 24
5 12/28/2019 09:29:27 79.69, 57.17 103.46 12/28/2019 09:29:28 79.70, 57.02 103.46 3.15 1
6 12/28/2019 10:20:08 -79.69,-135.54 76.55 12/28/2019 10:20:22 -79.67,-135.42 76.56 2.82 14
7 12/28/2019 11:10:49 79.68, 31.72 103.44 12/28/2019 11:11:28 79.68, 31.73 103.45 0.32 39
8 12/28/2019 12:01:30 -79.68,-160.98 76.58 12/28/2019 12:02:23 -79.68,-161.00 76.56 0.87 53
9 12/28/2019 12:52:16 79.50, 4.89 103.19 12/28/2019 12:53:23 79.52, 7.88 103.39 60.45 67
10 01/08/2020 07:20:13 79.71, 89.64 102.43 01/08/2020 07:19:12 79.74, 89.63 102.44 3.15 61
11 01/08/2020 08:10:54 -79.72,-102.95 77.57 01/08/2020 08:10:06 -79.71,-102.86 77.58 1.73 48
12 01/08/2020 09:01:34 79.73, 64.48 102.45 01/08/2020 09:01:12 79.72, 64.33 102.42 3.08 22
13 01/08/2020 09:52:16 -79.70,-128.40 77.60 01/08/2020 09:52:07 -79.72,-128.45 77.58 2.33 9
14 01/08/2020 10:42:56 79.72, 39.03 102.42 01/08/2020 10:43:12 79.70, 39.04 102.41 1.84 16
15 01/08/2020 11:33:38 -79.69,-153.84 77.62 01/08/2020 11:34:07 -79.70,-153.75 77.60 2.29 29
16 01/08/2020 12:24:18 79.70, 13.59 102.39 01/08/2020 12:25:13 79.71, 13.45 102.40 2.73 55




NCC Satellite Simultaneous Nadir Overpasses (SNOs) Prediction Service
